• Processing (Info)

  • MPEC 2005-K24 : 2005 KD7

    The following Minor Planet Electronic Circular may be linked-to from your own Web pages, but must not otherwise be redistributed electronically.

    A form allowing access to any MPEC is at the bottom of this page.


    Read MPEC 2005-K23 Read MPEC 2005-K25


    M.P.E.C. 2005-K24                                Issued 2005 May 22, 21:41 UT
    
         The Minor Planet Electronic Circulars contain information on unusual
             minor planets and routine data on comets.  They are published
       on behalf of Commission 20 of the International Astronomical Union by the
              Minor Planet Center, Smithsonian Astrophysical Observatory,
                              Cambridge, MA 02138, U.S.A.
    
                      Supported in part by the Brinson Foundation
                 Prepared using the Tamkin Foundation Computer Network
    
                                  MPC@CFA.HARVARD.EDU
              URL http://cfa-www.harvard.edu/iau/mpc.html  ISSN 1523-6714
    
                                       2005 KD7
    
    Observations:
         K05K07D* C2005 05 20.39137 16 39 47.50 -15 23 34.0          18.6 V EK024G96
         K05K07D  C2005 05 20.39802 16 39 45.83 -15 22 54.9          18.7 V EK024G96
         K05K07D  C2005 05 20.40466 16 39 44.15 -15 22 15.4          18.7 V EK024G96
         K05K07D  C2005 05 20.41132 16 39 42.47 -15 21 36.5          18.9 V EK024G96
         K05K07D  C2005 05 20.44126 16 39 34.99 -15 18 39.2          18.6 V EK024G96
         K05K07D  C2005 05 20.44169 16 39 34.88 -15 18 36.5          18.5 V EK024G96
         K05K07D  C2005 05 20.44213 16 39 34.77 -15 18 34.0          18.6 V EK024G96
         K05K07D  C2005 05 20.44256 16 39 34.66 -15 18 31.7          18.6 V EK024G96
         K05K07D %C2005 05 21.15978 16 36 39.65 -14 06 05.7          18.5 R EK024807
         K05K07D %C2005 05 21.16069 16 36 39.38 -14 06 01.2          18.5 R EK024807
         K05K07D %C2005 05 21.16305 16 36 38.79 -14 05 46.8          18.5 R EK024807
         K05K07D %C2005 05 21.16364 16 36 38.64 -14 05 42.8          18.6 R EK024807
         K05K07D %C2005 05 21.16423 16 36 38.49 -14 05 39.5          18.6 R EK024807
         K05K07D  C2005 05 21.28005 16 36 09.36 -13 54 13.1          19.7 V EK024G96
         K05K07D  C2005 05 21.28676 16 36 07.63 -13 53 32.4          19.5 V EK024G96
         K05K07D  C2005 05 21.29340 16 36 05.86 -13 52 50.9          20.1 V EK024G96
         K05K07D  C2005 05 21.30012 16 36 04.10 -13 52 09.9          19.5 V EK024G96
         K05K07D  C2005 05 21.33766 16 35 54.27 -13 48 17.5          19.3 V EK024G96
         K05K07D  C2005 05 21.33991 16 35 53.66 -13 48 03.1          19.4 V EK024G96
         K05K07D  C2005 05 21.34210 16 35 53.12 -13 47 50.1          19.9 V EK024G96
         K05K07D  C2005 05 21.34431 16 35 52.51 -13 47 35.6          19.7 V EK024G96
         K05K07D  C2005 05 21.35226 16 35 50.42 -13 46 46.7          19.8 V EK024G96
         K05K07D  C2005 05 21.36066 16 35 48.23 -13 45 54.4          20.1 V EK024G96
         K05K07D  C2005 05 21.36405 16 35 46.97 -13 45 34.7          19.2 R EK024649
         K05K07D  C2005 05 21.36488 16 35 47.13 -13 45 28.1          18.9 V EK024G96
         K05K07D  C2005 05 21.36701 16 35 46.16 -13 45 16.1          19.0 R EK024649
         K05K07D  C2005 05 21.36997 16 35 45.43 -13 44 57.1          18.3 R EK024649
         K05K07D  C2005 05 21.38949 16 35 40.70 -13 42 55.5          18.9 V EK024G96
         K05K07D  C2005 05 21.39095 16 35 40.30 -13 42 45.8          18.8 V EK024G96
         K05K07D  C2005 05 21.39387 16 35 39.51 -13 42 27.5          19.2 V EK024G96
         K05K07D %C2005 05 22.11584 16 32 35.74 -12 25 40.2          19.3 R EK024807
         K05K07D %C2005 05 22.13431 16 32 30.76 -12 23 40.9          18.8 R EK024807
         K05K07D %C2005 05 22.14278 16 32 28.46 -12 22 46.3          19.0 R EK024807
         K05K07D %C2005 05 22.14842 16 32 26.94 -12 22 09.9          18.6 R EK024807
         K05K07D  C2005 05 22.32170 16 31 40.85 -12 03 51.2          19.3 R EK024448
         K05K07D  C2005 05 22.33289 16 31 37.80 -12 02 38.8          19.4 R EK024448
         K05K07D  C2005 05 22.34977 16 31 33.02 -12 00 49.3          19.7 R EK024448
    
    Observer details:
    448 Desert Moon Observatory.  Observer B. L. Stevens.  0.3-m
        Schmidt-Cassegrain + CCD.
    649 Powell Observatory, Louisburg.  Observer R. Trentman.  0.75-m Newtonian
        reflector + CCD.
    807 Cerro Tololo.  Observer W. H. Ryan.  1.0-m f/10.0 reflector + CCD.
    G96 Mt. Lemmon Survey.  Observer E. J. Christensen.  Measurers E. C. Beshore,
        C. M. Casey, E. J. Christensen, G. J. Garradd, A. Grauer, R. E. Hill,
        S. M. Larson, R. H. McNaught.  1.5-m reflector + CCD.
    
    Orbital elements:
    2005 KD7
    Epoch 2005 May 10.0 TT = JDT 2453500.5                  MPC
    M 278.68962              (2000.0)            P               Q
    n   0.77824271     Peri.  137.34040     +0.81426553     -0.14930800
    a   1.1705573      Node   240.15684     +0.17493536     +0.98454641
    e   0.5563839      Incl.   40.29505     +0.55350633     -0.09151769
    P   1.27           H   20.5           G   0.15
    From 37 observations 2005 May 20-22.
    
    Ephemeris:
    2005 KD7                 a,e,i = 1.17, 0.56, 40                  q = 0.5193
    Date    TT    R. A. (2000) Decl.     Delta      r     Elong.  Phase     V
    2005 05 20    16 41.37   -16 01.3    0.328    1.333   166.5    10.2    19.4
    2005 05 30    15 52.70   +04 23.7    0.264    1.254   152.5    21.9    19.2
    2005 06 09    14 49.31   +27 57.8    0.268    1.169   119.0    49.4    19.8
    2005 06 19    13 42.53   +44 00.8    0.323    1.077    92.0    70.6    20.7
    2005 06 29    12 41.14   +52 25.5    0.399    0.979    73.2    83.8    21.4
    
    Timothy B. Spahr             (C) Copyright 2005 MPC           M.P.E.C. 2005-K24
    

    Read MPEC 2005-K23 Read MPEC 2005-K25


    MPEC number:

    Enter an MPEC number in one of the following forms:

    • 1997-B01 (the full form)
    • J97B01 (the packed version of the full form)
    • B01 (the abbreviated form)